Flag for U.S.A. Weather past 2 weeks in Visalia, California, U.S.A.

Now
84 °F

Sunny.


Feels Like: 83 °F
Forecast: 64 / 96 °F
Wind: 5 mph from Northwest

Location: Visalia Municipal

Current Time: Sep 1, 2014 at 12:06:56 PM

Latest Report: Sep 1, 2014 at 11:35 AM


Visibility: 10 mi

Pressure: 29.82 "Hg

Humidity: 37%

Dew point: 55 °F

Location of VisaliaLocation

Historic Weather in Visalia — Graph

°F

Visalia temperature yesterday

Maximum temperature yesterday: 93 °F (at 4:15 PM)
Minimum temperature yesterday: 59 °F (at 5:55 AM)
Average temperature yesterday: 78 °F

Past Weeks' High & Low Weather Summary

 TemperatureHumidityPressure
High99 °F (Aug 17, 5:35 PM)77% (Aug 21, 7:15 AM)30.05 "Hg (Aug 21, 7:15 AM)
Low57 °F (Aug 26, 5:55 AM)17% (Aug 30, 6:15 PM)29.70 "Hg (Aug 18, 6:15 PM)
Average77 °F48%29.85 "Hg
* Reported Aug 17 10:35 AM — Sep 1 10:35 AM, Visalia, Weather by CustomWeather, © 2014

Note: Actual official high and low records may vary slightly from our data, if they occured in-between our weather recording intervals... More about our weather records

Advertising

Visalia weather history for previous 24 hours

 ConditionsComfort  
Time TempWeatherWind HumidityBarometerVisibility
10:35 AM
Sep 1
81 °FSunny.5 mph42%29.84 "Hg10 mi
10:15 AM81 °FSunny.3 mph45%29.84 "Hg10 mi
9:55 AM77 °FSunny.No wind51%29.83 "Hg10 mi
9:35 AM75 °FSunny.No wind50%29.84 "Hg10 mi
9:15 AM73 °FSunny.No wind53%29.84 "Hg10 mi
8:55 AM72 °FSunny.No wind57%29.84 "Hg10 mi
8:35 AM72 °FSunny.3 mph57%29.84 "Hg10 mi
8:15 AM68 °FSunny.3 mph64%29.83 "Hg10 mi
7:55 AM66 °FSunny.3 mph64%29.83 "Hg10 mi
7:35 AM64 °FSunny.3 mph68%29.83 "Hg10 mi
7:15 AM61 °FClear.5 mph77%29.83 "Hg10 mi
6:55 AM61 °FClear.3 mph72%29.82 "Hg10 mi
6:35 AM61 °FClear.3 mph72%29.81 "Hg10 mi
6:15 AM61 °FClear.6 mph77%29.81 "Hg10 mi
5:55 AM61 °FClear.3 mph72%29.80 "Hg10 mi
5:35 AM61 °FClear.No wind72%29.80 "Hg10 mi
5:15 AM63 °FClear.6 mph68%29.80 "Hg10 mi
4:55 AM61 °FClear.No wind72%29.80 "Hg10 mi
4:35 AM63 °FClear.3 mph68%29.80 "Hg10 mi
4:15 AM63 °FMild.No wind68%29.80 "Hg10 mi
3:55 AM64 °FMild.No wind68%29.80 "Hg10 mi
3:35 AM64 °FMild.No wind64%29.80 "Hg10 mi
3:15 AM66 °FClear.No wind64%29.79 "Hg6 mi
2:55 AM66 °FClear.3 mph64%29.79 "Hg10 mi
2:35 AM66 °FClear.3 mph64%29.80 "Hg10 mi
2:15 AM68 °FClear.No wind60%29.80 "Hg5 mi
1:55 AM68 °FClear.3 mph60%29.80 "Hg7 mi
1:35 AM70 °FClear.3 mph57%29.80 "Hg10 mi
1:15 AM70 °FClear.5 mph57%29.80 "Hg10 mi
12:55 AM68 °FClear.No wind60%29.80 "Hg10 mi
12:35 AM70 °FClear.No wind57%29.81 "Hg10 mi
12:15 AM72 °FClear.3 mph53%29.80 "Hg10 mi
11:55 PM
Aug 31
72 °FClear.6 mph53%29.80 "Hg10 mi
11:35 PM73 °FClear.5 mph50%29.80 "Hg10 mi
11:15 PM73 °FClear.5 mph50%29.80 "Hg10 mi
10:55 PM75 °FClear.5 mph44%29.80 "Hg10 mi
10:35 PM77 °FClear.6 mph44%29.80 "Hg10 mi
10:15 PM77 °FClear.7 mph42%29.79 "Hg10 mi
9:55 PM79 °FClear.6 mph39%29.79 "Hg10 mi
9:35 PM79 °FClear.7 mph39%29.79 "Hg10 mi
9:15 PM79 °FClear.7 mph39%29.79 "Hg10 mi
8:55 PM81 °FClear.6 mph37%29.77 "Hg10 mi
8:35 PM81 °FClear.5 mph37%29.76 "Hg10 mi
8:15 PM81 °FSunny.6 mph37%29.77 "Hg10 mi
7:55 PM82 °FSunny.7 mph35%29.76 "Hg10 mi
7:35 PM84 °FSunny.6 mph33%29.76 "Hg10 mi
7:15 PM86 °FSunny.6 mph31%29.76 "Hg10 mi
6:55 PM88 °FSunny.7 mph29%29.76 "Hg10 mi
6:35 PM90 °FSunny.8 mph26%29.76 "Hg10 mi
6:15 PM90 °FSunny.8 mph27%29.76 "Hg10 mi
5:55 PM91 °FSunny.10 mph24%29.76 "Hg10 mi
5:35 PM91 °FSunny.8 mph24%29.77 "Hg10 mi
4:55 PM91 °FSunny.8 mph26%29.77 "Hg10 mi
4:35 PM91 °FSunny.9 mph26%29.78 "Hg10 mi
4:15 PM93 °FSunny.10 mph23%29.79 "Hg10 mi
3:55 PM91 °FSunny.8 mph23%29.78 "Hg10 mi
3:35 PM91 °FSunny.9 mph24%29.79 "Hg10 mi
3:15 PM91 °FSunny.7 mph23%29.80 "Hg10 mi
2:55 PM91 °FSunny.8 mph24%29.81 "Hg10 mi
2:35 PM91 °FSunny.9 mph26%29.82 "Hg10 mi
2:15 PM91 °FSunny.8 mph23%29.82 "Hg10 mi
1:55 PM90 °FSunny.9 mph24%29.83 "Hg10 mi
1:35 PM90 °FSunny.10 mph24%29.84 "Hg10 mi
1:15 PM90 °FSunny.10 mph24%29.85 "Hg10 mi
12:55 PM88 °FSunny.9 mph29%29.86 "Hg10 mi
12:35 PM88 °FSunny.9 mph29%29.87 "Hg10 mi
12:15 PM88 °FSunny.12 mph27%29.88 "Hg10 mi
Weather by CustomWeather, © 2014

See weather overviewHow to use our weather pages